Lapse_Rate
5.7 5.7 6.1 6.3 6.4 6.5 6.8 7.1 7.5 7.5 7.3 7.4 7.5 8.1 8.2 8.3 8.2 8.2 8.1 8.0 8.0 7.9 7.9 7.8 7.8 7.7 7.5 7.2 7.0 6.7 6.5 6.6 6.7 6.6 6.5 6.7 6.3 6.4 6.4 6.4 6.4 6.4 6.3 6.2 6.2 6.4 6.4 6.3 6.2
5.8 5.8 6.3 6.3 6.1 6.4 6.9 7.2 7.3 7.4 7.4 7.6 7.7 8.0 8.3 8.4 8.3 8.2 8.2 8.1 8.1 7.9 7.9 7.7 7.6 7.6 7.7 7.4 7.1 6.9 6.6 6.7 6.8 6.7 6.6 6.6 6.4 6.5 6.6 6.6 6.5 6.3 6.3 6.2 6.3 6.4 6.4 6.4 6.2
5.9 5.8 6.3 6.3 6.2 6.5 7.0 7.2 7.0 7.3 7.3 7.5 7.8 7.8 8.1 8.4 8.4 8.2 8.2 8.3 8.1 7.9 7.8 7.6 7.4 7.5 7.5 7.4 7.1 6.9 6.8 6.9 6.9 6.8 6.7 6.5 6.3 6.7 6.7 6.6 6.5 6.5 6.4 6.3 6.3 6.4 6.5 6.3 6.3
6.0 5.9 6.0 6.1 6.3 6.7 7.0 6.9 6.7 7.0 7.2 7.5 7.5 8.0 8.2 8.2 8.3 8.2 8.3 8.1 7.9 7.7 7.6 7.5 7.3 7.2 7.3 7.3 7.2 7.0 6.9 6.9 6.9 7.0 6.9 6.7 6.7 6.9 6.8 6.7 6.7 6.6 6.4 6.3 6.2 6.4 6.3 6.4 6.4
6.0 6.0 5.9 5.9 6.4 6.7 6.8 6.6 6.7 7.0 7.4 7.2 7.3 7.9 8.1 8.2 8.3 8.2 8.1 8.0 7.8 7.6 7.5 7.3 7.2 7.1 7.1 7.1 7.1 7.0 6.9 6.9 7.0 7.0 6.9 6.9 6.9 6.9 6.9 6.7 6.5 6.4 6.2 6.2 6.1 6.3 6.3 6.3 6.3
5.8 5.8 5.7 5.6 6.1 6.4 6.5 6.6 6.7 7.0 7.5 7.3 7.4 7.7 8.0 8.0 8.2 8.2 8.0 7.9 7.7 7.6 7.4 7.3 7.1 7.0 6.9 6.9 6.9 6.9 6.8 6.8 6.8 6.9 6.9 6.8 6.7 6.6 6.6 6.4 6.3 6.2 6.1 6.1 6.2 6.3 6.3 6.3 6.2
5.6 5.7 5.8 5.6 5.9 6.5 6.4 6.4 6.7 7.1 7.5 7.6 7.4 7.4 7.7 7.8 8.1 8.0 8.0 7.9 7.6 7.5 7.3 7.2 7.0 6.9 6.8 6.7 6.7 6.7 6.7 6.7 6.6 6.7 6.8 6.7 6.6 6.4 6.4 6.2 6.1 6.0 5.9 5.9 6.1 6.1 6.0 6.1 6.2
5.4 5.5 5.8 5.9 6.1 6.5 6.3 6.3 6.3 6.9 7.4 7.8 7.7 7.8 7.7 7.6 7.9 7.8 7.8 7.8 7.5 7.3 7.2 7.1 7.0 6.8 6.6 6.6 6.6 6.6 6.6 6.5 6.6 6.6 6.7 6.6 6.4 6.2 6.1 5.9 5.9 5.9 5.8 5.8 5.7 5.6 5.7 5.7 5.7
5.1 5.2 5.8 6.1 6.2 6.1 6.0 6.2 6.2 6.7 7.5 7.9 7.8 7.8 7.7 7.5 7.6 7.7 7.8 7.6 7.3 7.2 7.1 6.9 6.8 6.7 6.6 6.5 6.5 6.5 6.5 6.4 6.4 6.4 6.4 6.4 6.2 6.0 5.7 5.6 5.5 5.4 5.4 5.5 5.5 5.4 5.4 5.5 5.5
5.0 5.1 5.9 6.2 6.1 5.8 5.8 6.0 6.5 7.0 7.4 7.6 7.8 8.1 7.8 7.7 7.6 7.7 7.7 7.4 7.2 7.2 7.0 6.8 6.6 6.6 6.5 6.5 6.4 6.3 6.3 6.2 6.1 6.1 6.0 5.9 5.8 5.7 5.6 5.5 5.4 5.4 5.4 5.3 5.3 5.2 5.2 5.3 5.3
5.0 5.0 6.0 6.1 6.0 5.7 6.0 6.4 6.3 7.3 7.5 7.5 7.8 7.9 7.7 7.6 7.6 7.5 7.4 7.2 7.2 7.1 6.8 6.6 6.5 6.4 6.4 6.3 6.3 6.2 6.1 5.9 5.9 5.6 5.6 5.5 5.5 5.4 5.3 5.3 5.3 5.3 5.4 5.3 5.2 5.2 5.2 5.2 5.3
4.9 5.2 5.9 6.2 5.7 5.8 6.2 6.1 6.8 7.0 7.7 7.5 7.6 7.6 7.7 7.7 7.4 7.3 7.1 7.2 7.1 7.0 6.8 6.6 6.5 6.3 6.3 6.4 6.1 6.0 5.8 5.6 5.4 5.3 5.2 5.1 5.1 5.0 5.0 5.0 4.9 4.8 4.9 4.8 4.8 4.8 4.8 4.9 4.9
4.9 5.4 5.8 5.9 5.6 6.0 6.0 6.3 6.4 7.3 7.7 7.4 7.5 7.5 7.5 7.7 7.5 7.3 7.2 7.2 6.9 6.9 6.8 6.7 6.6 6.3 6.4 6.4 6.2 5.9 5.6 5.4 5.3 5.1 5.0 4.9 4.8 4.8 4.8 4.8 4.7 4.6 4.6 4.6 4.5 4.5 4.4 4.4 4.3
5.1 5.5 5.5 5.5 6.1 5.9 6.1 6.4 5.4 7.8 7.8 7.6 7.3 7.5 7.6 7.5 7.4 7.3 7.1 7.1 7.0 6.8 6.6 6.5 6.3 6.3 6.3 6.4 6.3 6.1 5.7 5.4 5.3 5.1 5.0 4.9 4.7 4.7 4.6 4.7 4.7 4.6 4.4 4.4 4.4 4.4 4.2 4.2 4.1
4.9 5.1 5.0 5.6 6.3 6.1 5.9 6.3 7.1 7.6 6.9 7.3 7.2 7.6 7.5 7.4 7.4 7.3 7.3 7.1 6.8 6.6 6.4 6.3 6.2 6.3 6.3 6.3 6.2 6.1 5.9 5.6 5.2 4.9 4.7 4.6 4.5 4.5 4.5 4.5 4.5 4.5 4.4 4.4 4.4 4.3 4.3 4.3 4.3
4.9 4.8 4.8 6.1 6.1 6.3 5.8 7.6 7.0 6.5 7.3 7.1 6.8 7.1 7.3 7.1 7.1 7.2 7.2 7.1 6.9 6.7 6.6 6.4 6.3 6.5 6.4 6.3 6.1 5.8 5.7 5.5 5.2 4.9 4.6 4.5 4.4 4.5 4.7 4.7 4.8 4.6 4.5 4.6 4.6 4.5 4.5 4.6 4.6
5.1 4.8 4.9 5.8 6.0 6.1 6.0 7.2 6.5 7.0 6.9 6.8 6.7 6.8 7.0 7.0 7.1 7.3 7.3 7.2 7.0 6.9 6.7 6.8 6.7 6.8 6.6 6.4 6.1 5.8 5.6 5.3 5.0 4.9 4.9 4.8 4.8 4.9 4.9 5.0 5.1 5.0 5.0 5.0 4.9 4.9 4.7 4.8 4.9
5.3 4.7 5.1 5.8 6.0 6.1 6.3 6.7 6.6 6.5 6.5 6.6 6.6 6.7 6.7 6.9 7.0 7.0 7.0 7.0 7.1 7.0 6.8 7.0 6.8 6.7 6.6 6.4 6.2 6.0 5.7 5.5 5.3 5.4 5.5 5.6 5.5 5.3 5.3 5.3 5.2 5.1 5.2 5.2 5.0 4.9 4.8 4.9 5.0
5.2 5.0 5.5 6.1 5.9 5.9 6.4 6.3 6.5 6.6 6.5 6.6 6.4 6.6 6.6 6.7 6.8 6.7 6.7 6.8 7.1 7.0 6.9 6.9 6.7 6.5 6.3 6.2 6.1 6.0 5.9 5.9 6.0 5.9 5.7 5.6 5.4 5.2 5.1 5.2 5.1 5.0 5.1 5.1 5.0 5.0 5.0 5.1 5.0
5.4 5.0 5.3 5.8 5.7 5.9 6.0 6.3 6.3 6.4 6.6 6.6 6.5 6.5 6.4 6.4 6.3 6.4 6.5 6.7 6.6 6.6 6.8 6.5 6.3 6.1 6.0 6.0 6.0 5.9 6.1 5.9 5.8 5.7 5.6 5.5 5.4 5.3 5.3 5.3 5.2 5.1 5.1 5.1 5.1 5.0 4.9 5.0 5.1
5.0 5.0 5.4 5.7 5.8 5.9 6.0 6.2 6.6 6.5 6.4 6.4 6.3 6.2 5.9 5.9 6.0 6.2 6.3 6.3 6.3 6.3 6.1 6.0 6.0 6.0 6.0 6.0 6.0 6.0 5.9 5.8 5.6 5.5 5.4 5.3 5.2 5.2 5.2 5.2 5.1 5.1 5.0 5.1 5.1 4.9 4.8 4.7 4.8
4.9 5.7 5.6 5.6 5.4 5.6 5.6 5.0 5.9 6.5 6.3 6.3 6.0 6.0 5.8 5.7 5.8 6.2 6.2 6.2 6.1 5.7 5.8 5.9 5.8 5.8 5.9 6.0 6.1 5.9 5.7 5.5 5.3 5.2 5.2 5.2 5.2 5.2 5.1 5.0 4.9 4.8 4.7 4.6 4.5 4.5 4.5 4.5 4.5
5.5 6.0 5.7 5.4 5.4 5.5 5.7 5.3 6.1 6.4 6.6 6.4 6.1 5.9 5.7 5.8 5.7 5.8 6.0 5.9 5.7 5.6 5.6 5.6 5.6 5.7 5.7 5.8 5.7 5.5 5.4 5.3 5.1 5.0 5.0 4.9 4.8 4.6 4.5 4.3 4.2 4.0 3.9 3.9 3.9 4.0 4.1 4.1 4.1
5.7 5.7 5.7 5.4 5.8 4.6 6.1 5.6 6.0 6.6 6.4 6.1 6.0 5.9 5.7 5.7 5.6 5.5 5.6 5.6 5.6 5.6 5.5 5.4 5.5 5.5 5.4 5.3 5.1 5.0 5.0 4.9 4.8 4.7 4.6 4.4 4.3 4.1 4.0 4.0 4.0 3.9 3.9 3.9 3.9 4.0 3.9 3.8 3.8
5.6 5.9 5.2 5.4 4.9 4.1 6.1 5.7 6.3 6.9 6.4 6.3 6.1 5.9 5.8 5.6 5.5 5.5 5.6 5.7 5.7 5.6 5.4 5.3 5.3 5.1 4.9 5.0 5.0 4.9 4.7 4.6 4.6 4.5 4.3 4.1 3.9 3.9 3.8 3.8 3.8 3.8 3.8 3.8 3.9 3.9 3.9 3.9 3.8
5.5 5.6 5.8 5.0 4.4 4.5 5.6 5.6 6.9 7.0 6.9 6.8 6.7 6.0 5.9 5.8 5.7 5.7 6.0 5.8 5.7 5.5 5.2 5.1 5.0 4.9 4.9 4.8 4.7 4.5 4.4 4.3 4.1 3.9 3.7 3.5 3.5 3.5 3.5 3.5 3.6 3.8 3.8 3.8 3.9 3.9 3.9 3.9 3.8
5.5 5.3 6.3 6.1 5.3 4.7 5.9 6.5 6.9 7.1 7.1 7.2 7.1 6.8 6.0 5.9 5.9 6.1 6.0 5.8 5.7 5.4 5.2 4.9 4.7 4.7 4.7 4.5 4.3 4.3 4.0 3.7 3.4 3.3 3.3 3.1 3.1 3.2 3.4 3.6 3.6 3.6 3.6 3.6 3.7 3.7 3.7 3.7 3.7
5.8 6.5 6.1 6.0 5.5 5.0 5.2 6.0 7.0 7.1 7.2 7.5 7.4 7.0 6.4 6.3 6.2 6.1 6.0 5.8 5.7 5.3 4.7 4.6 4.7 4.7 4.5 4.3 4.2 3.8 3.6 3.4 3.1 2.9 2.8 2.9 3.1 3.3 3.4 3.4 3.4 3.3 3.2 3.2 3.2 3.3 3.3 3.3 3.4
5.4 5.8 6.0 6.1 5.9 4.5 4.4 6.3 7.0 7.1 7.4 7.4 7.3 6.7 6.4 6.2 6.1 6.0 6.0 5.8 5.4 5.0 4.6 4.7 4.6 4.4 4.3 4.0 3.9 3.7 3.3 3.2 3.2 3.2 3.2 3.2 3.3 3.3 3.3 3.2 3.2 3.2 3.1 3.0 3.1 3.0 3.0 3.2 3.6
6.2 6.4 6.6 6.5 5.6 5.9 5.5 6.1 7.0 7.3 7.5 7.3 7.0 6.5 6.2 6.1 6.0 6.0 5.8 5.6 5.2 4.9 4.7 4.6 4.5 4.4 4.2 4.0 3.7 3.4 3.5 3.4 3.4 3.4 3.5 3.5 3.3 3.4 3.4 3.2 3.0 2.9 2.8 2.8 2.9 3.0 3.3 3.7 4.3
Wind_Speed
8 8 3 4 4 5 2 5 2 5 4 1 5 2 3 2 3 4 2 7 1 7 13 13 15 15 14 11 11 10 10 8 8 7 5 8 7 5 2 3 1 3 2 3 5 5 4 5 8
5 3 5 2 4 3 4 4 4 2 4 8 4 2 2 4 2 3 1 7 6 7 12 11 14 15 17 16 14 11 10 9 9 8 7 9 9 5 5 5 3 4 4 3 5 8 3 5 6
2 5 3 4 3 3 4 3 5 7 9 4 3 3 2 3 2 3 4 9 7 7 11 11 14 15 15 13 11 11 9 10 9 9 6 10 7 8 4 1 4 5 4 5 6 5 3 5 7
5 4 4 4 2 4 4 4 4 9 6 4 2 5 3 2 2 3 5 8 8 7 10 13 14 15 14 12 11 11 10 10 9 10 10 10 9 7 6 4 5 5 6 7 7 9 7 8 8
4 3 4 3 4 4 5 5 6 5 6 4 1 4 4 2 3 3 7 7 9 7 9 11 14 16 15 14 13 12 11 10 10 10 12 12 11 8 9 8 7 8 9 9 9 10 10 11 10
4 3 3 2 4 6 7 5 3 3 5 6 1 2 4 2 1 4 6 7 6 8 7 10 13 16 16 15 14 14 12 12 10 10 7 7 9 11 8 9 8 9 10 11 11 11 11 11 12
4 3 3 2 4 6 4 6 3 5 6 4 1 3 4 4 5 5 6 5 5 5 5 7 9 14 16 16 15 14 13 12 11 11 11 8 4 5 5 8 9 9 11 12 12 12 12 12 13
4 3 2 3 3 6 4 8 4 4 6 7 3 4 4 3 2 5 4 5 4 5 5 5 7 9 10 11 14 14 13 12 11 11 13 9 7 4 7 10 10 11 12 14 13 13 14 13 14
4 3 2 4 5 5 3 7 4 3 5 5 3 3 5 6 4 4 2 3 2 3 5 5 5 7 9 10 11 14 14 13 13 12 11 9 8 8 9 10 10 11 13 14 14 14 15 14 13
4 4 8 6 4 4 5 2 6 6 7 5 3 4 2 3 1 6 6 6 5 5 5 5 5 5 7 7 9 10 10 10 10 9 9 9 10 10 10 11 12 12 13 14 15 17 16 13 10
5 6 5 5 7 3 4 7 3 3 7 6 8 8 5 1 6 8 8 7 6 4 3 7 6 6 6 4 6 6 7 8 9 10 9 9 8 8 6 6 8 9 12 11 12 12 12 10 10
3 7 5 4 2 2 4 5 7 7 10 9 9 6 5 7 9 10 6 4 3 5 6 7 7 6 5 5 4 6 3 7 6 10 11 7 3 4 4 4 7 7 9 7 9 8 10 10 12
4 4 3 7 9 7 4 9 8 10 13 7 10 9 10 8 9 3 5 5 5 8 8 8 7 8 7 7 4 4 4 4 8 9 11 9 4 4 4 4 6 7 9 7 5 5 6 6 8
6 7 8 5 10 5 6 9 4 6 5 9 8 11 8 7 6 3 5 7 6 7 8 7 8 8 7 8 7 6 5 8 7 8 10 12 9 4 4 4 4 4 10 10 8 6 6 6 5
3 3 7 6 5 7 6 12 12 12 2 9 10 10 5 6 6 5 5 6 6 6 7 8 8 8 9 8 7 6 5 7 4 7 11 12 10 7 5 4 5 6 9 10 7 6 4 7 6
6 2 3 4 2 4 6 17 11 8 5 7 8 7 5 6 6 6 6 6 7 6 8 6 5 7 8 7 5 4 4 4 4 6 8 9 10 11 5 5 7 8 6 5 4 5 6 7 7
3 4 6 7 5 3 5 8 8 2 4 5 4 3 4 6 8 8 8 7 7 6 7 8 3 4 5 5 4 5 5 4 3 4 4 6 9 10 5 5 7 7 4 4 5 6 5 8 8
6 4 3 5 2 2 5 13 17 5 2 4 4 3 4 7 7 7 8 7 6 7 7 7 6 6 0 1 1 1 2 2 2 2 4 7 7 8 5 4 6 4 4 5 4 7 7 7 10
6 4 6 4 4 2 7 8 15 8 5 4 5 4 4 7 3 5 7 8 9 8 8 9 11 9 5 4 3 2 1 2 2 2 5 5 6 6 4 4 5 4 4 7 7 4 5 7 6
3 3 5 6 1 3 7 10 12 7 6 4 8 6 4 5 6 7 8 8 8 6 9 12 12 11 6 3 2 2 3 3 3 4 7 11 10 10 6 5 4 5 4 6 6 5 6 5 5
3 5 4 5 7 3 6 8 6 2 1 6 5 4 4 6 7 5 7 7 7 10 9 10 9 11 10 8 4 4 4 4 4 5 5 6 9 11 9 7 6 6 5 5 6 6 6 8 8
9 6 3 3 4 3 5 6 6 5 4 5 7 6 6 6 3 5 6 7 7 7 7 8 10 10 10 9 9 10 5 4 3 3 3 5 10 8 11 8 7 6 5 7 6 7 6 8 8
4 6 6 3 3 2 1 2 7 1 5 6 7 7 6 6 6 6 7 7 5 6 7 6 9 11 9 11 9 7 7 3 2 3 7 7 7 8 11 11 8 8 6 6 6 8 9 4 6
6 5 2 3 2 2 6 7 5 4 6 4 4 6 7 7 6 5 6 6 7 6 7 7 11 10 10 10 10 10 9 7 8 8 8 7 6 5 8 9 8 7 7 8 8 8 7 7 6
5 7 2 1 1 6 1 2 8 4 5 8 12 10 8 7 7 6 7 7 7 7 6 7 9 9 8 10 11 10 8 8 8 7 7 8 8 7 10 10 10 8 9 9 8 7 7 7 7
7 8 5 6 4 4 3 6 5 2 6 7 9 10 8 7 6 7 7 6 7 7 7 7 8 9 8 9 9 7 8 5 5 6 5 5 5 5 8 9 9 10 10 9 9 7 6 9 7
6 9 4 5 2 1 3 7 8 4 6 3 10 11 9 8 7 7 7 6 7 7 7 7 7 7 8 7 6 7 7 7 6 6 4 4 5 8 9 7 8 9 10 11 11 8 10 10 9
7 8 2 2 3 4 4 5 5 5 2 3 8 10 8 6 7 7 6 7 6 6 6 7 7 8 6 6 6 6 6 6 6 6 7 7 6 7 8 9 9 10 10 11 12 9 11 11 6
2 4 4 4 3 4 1 5 5 5 4 8 7 6 8 8 7 7 6 6 6 6 6 6 7 7 7 6 5 6 8 7 6 5 5 6 6 7 8 9 10 10 11 11 11 11 11 13 11
4 7 6 5 4 1 3 6 2 6 5 7 7 6 7 7 7 7 7 7 6 6 6 6 6 6 5 6 7 6 5 5 6 6 6 6 6 7 8 9 10 10 11 11 11 12 11 12 13
Wind_Direction
342 4 65 42 58 68 236 258 272 315 327 239 281 237 257 252 176 229 311 191 284 160 177 193 185 183 173 177 171 172 176 179 192 203 177 201 159 193 159 230 82 273 280 302 300 241 256 271 250
349 30 44 77 87 75 266 269 236 250 268 307 250 290 294 266 262 281 310 183 179 159 172 185 192 187 188 174 177 180 188 190 202 227 201 187 182 181 209 247 232 262 268 278 285 316 278 268 294
77 45 74 82 101 173 229 249 298 285 281 244 278 182 241 239 231 223 214 158 153 156 168 183 197 203 182 177 177 188 195 198 216 221 205 198 202 153 179 221 249 257 242 259 274 286 285 262 269
15 17 39 76 244 247 228 310 272 321 320 200 235 282 285 229 190 196 141 154 149 158 169 188 200 182 179 185 188 194 198 206 211 225 228 203 201 186 195 199 247 241 254 251 255 260 262 263 265
32 58 42 27 274 279 269 272 302 304 286 277 186 264 253 242 327 159 156 154 158 157 175 192 204 185 188 189 196 194 203 203 216 228 241 222 208 210 199 214 226 239 245 248 255 261 261 261 265
23 91 48 301 273 284 278 249 273 287 274 292 256 250 255 312 175 180 157 167 161 160 173 192 205 195 192 195 198 198 202 206 221 236 246 207 218 227 174 204 236 247 252 253 259 265 267 266 261
122 92 208 227 267 300 244 334 349 311 283 281 263 248 277 310 199 158 172 168 158 157 168 189 205 206 199 200 200 204 206 208 213 228 249 227 259 182 202 230 250 261 256 261 257 263 269 271 271
113 97 146 235 235 269 289 336 290 315 285 303 215 254 304 1 184 136 146 169 169 177 184 195 205 213 206 207 207 207 213 213 214 224 243 232 231 236 232 255 248 258 266 265 266 268 274 276 276
130 76 207 236 186 247 296 355 300 276 268 308 276 249 287 315 110 126 148 151 188 206 198 194 195 212 210 209 216 216 217 216 221 231 243 220 212 237 246 254 259 257 267 268 274 276 277 280 281
127 153 220 212 200 241 297 284 313 333 321 297 311 260 327 70 163 216 209 205 200 208 208 198 194 210 212 211 210 219 221 228 231 237 234 229 226 237 247 262 274 277 280 283 281 281 280 286 287
174 202 217 254 238 260 265 302 238 276 298 236 288 292 319 251 224 239 238 218 216 215 203 200 194 210 205 209 211 218 224 229 236 235 233 236 238 250 266 286 284 286 288 285 282 281 280 281 279
173 242 214 277 245 285 273 310 289 212 244 257 275 291 289 253 231 231 272 304 265 230 228 213 200 206 207 202 208 215 207 222 227 235 234 223 227 239 245 243 254 257 261 263 262 259 261 264 265
201 259 242 249 276 256 277 254 239 260 261 286 291 292 274 273 264 328 280 265 242 245 238 222 202 207 203 204 207 213 216 217 220 228 235 226 220 230 223 237 242 247 251 244 250 248 252 252 256
204 220 269 286 275 256 248 269 161 250 268 301 300 287 300 295 270 256 265 271 260 262 254 233 212 207 197 207 204 216 210 223 218 225 230 230 227 229 229 247 246 242 237 245 244 245 250 254 244
196 296 300 261 260 256 182 280 237 252 253 288 320 311 304 7 24 354 332 326 322 306 283 242 229 198 202 206 206 210 212 216 217 226 230 230 227 230 244 243 249 249 240 246 250 255 252 262 255
145 142 270 279 306 283 143 274 281 261 235 299 329 331 61 57 39 11 9 1 347 337 335 294 237 197 202 206 194 201 201 215 228 227 232 235 237 235 235 251 258 260 241 238 247 254 259 256 255
168 200 210 303 205 230 181 287 280 28 52 346 302 1 58 63 34 16 12 10 6 1 351 6 346 245 218 202 193 200 204 216 230 237 242 243 247 246 236 253 268 265 247 240 247 261 233 273 274
173 205 213 232 255 207 257 263 275 270 228 295 189 138 79 63 34 11 14 14 18 21 18 20 29 23 321 101 88 29 352 329 314 292 267 264 258 254 236 257 269 273 266 268 248 250 266 260 273
156 191 215 255 260 268 280 274 278 279 261 242 183 133 89 73 27 28 26 23 21 21 22 21 32 14 55 66 75 64 313 355 7 335 311 306 301 292 259 262 276 276 265 278 285 272 264 281 263
140 182 253 284 211 191 304 284 273 266 265 183 164 158 144 94 54 34 28 30 24 27 32 35 33 31 35 60 69 96 87 61 58 29 35 30 35 29 28 355 331 315 303 301 293 277 290 274 271
187 195 251 239 335 312 326 290 311 327 126 109 123 139 129 119 111 82 55 40 30 34 29 39 29 36 35 31 46 47 46 36 26 22 27 19 33 34 29 21 13 1 353 339 323 308 294 296 293
220 197 207 281 20 261 38 286 291 269 202 150 140 144 151 134 131 101 86 58 46 33 36 43 44 42 39 31 60 64 60 63 14 5 357 15 22 22 22 13 7 359 352 354 341 342 329 326 316
214 150 193 217 210 353 282 293 271 164 214 199 182 168 186 158 139 118 97 88 66 53 52 48 58 50 42 50 52 64 62 48 11 11 22 16 11 14 18 8 360 355 350 335 330 335 337 318 320
155 81 60 53 88 289 226 187 274 210 212 153 165 176 184 158 146 117 100 95 77 60 54 51 65 50 44 53 48 55 52 37 35 20 19 6 4 360 8 358 354 344 341 338 331 324 321 317 311
100 115 287 279 280 229 72 179 252 232 230 186 179 184 182 169 157 137 114 96 87 76 62 66 66 57 48 56 51 44 43 40 37 19 11 6 1 0 357 355 351 347 340 334 329 319 309 308 303
180 174 163 195 202 257 111 238 251 239 285 249 166 156 153 167 169 146 127 116 110 97 77 69 64 61 49 53 50 44 41 40 32 21 10 3 353 338 345 342 341 339 336 333 331 324 314 314 306
194 202 190 100 10 48 234 289 307 3 19 115 149 144 166 170 166 146 124 123 112 89 78 81 76 66 55 52 57 44 37 33 21 6 358 355 348 349 345 334 335 336 335 334 331 323 323 320 314
174 159 111 5 224 247 285 279 244 338 346 134 155 161 159 162 159 141 132 125 99 94 88 72 69 71 61 54 44 43 28 22 15 10 5 352 341 339 338 341 340 338 337 333 333 326 326 320 333
155 165 58 124 138 176 299 273 217 274 262 199 182 159 158 170 170 155 137 119 110 97 78 72 63 59 49 47 41 36 24 15 1 2 353 349 334 333 337 340 338 339 335 332 330 327 325 332 327
162 167 154 151 214 134 147 274 353 284 276 148 145 148 173 187 174 151 141 129 115 94 76 69 60 60 47 44 41 31 14 4 4 352 338 334 336 338 338 337 335 333 329 325 322 318 329 320 324